BCO003 LEGT-EDHI

Flight info

Callsign BCO003
Flight time 2h 50m
Altitude 30000
Route SIE N858 ABRIX DCT ETPAR DCT BOKNO UN858 VANAD UN874 ARSAF DCT SULEX DCT CMB DCT ADUTO N873 VICOT DCT PABCO M105 RIBSO
Aircraft A337/H-SDE3GHIJ2J3J5M1RVWXY/LB2D1

Departure

Time 2026-04-25 16:25
Airport Getafe Air Base (LEGT)

Arrival

Time 2026-04-25 19:15
Airport Hamburg-Finkenwerder Airport (EDHI)
Time Latitude Longitude Altitude Speed Heading
2026-04-25 16:17 40.29886 -3.71733 2023 ft 0 kts 223°
2026-04-25 16:24 40.29850 -3.71778 2035 ft 32 kts 223°
2026-04-25 16:24 40.29540 -3.72185 2037 ft 91 kts 227°
2026-04-25 16:25 40.29035 -3.73007 2049 ft 139 kts 236°
2026-04-25 16:25 40.28667 -3.73791 2186 ft 163 kts 242°
2026-04-25 16:25 40.27853 -3.75658 2925 ft 188 kts 239°
2026-04-25 16:25 40.26957 -3.77054 3386 ft 220 kts 213°
2026-04-25 16:26 40.25455 -3.77765 3615 ft 242 kts 185°
2026-04-25 16:26 40.23714 -3.77824 3971 ft 257 kts 175°
2026-04-25 16:26 40.21931 -3.77443 4468 ft 264 kts 160°
2026-04-25 16:26 40.20337 -3.76267 5129 ft 264 kts 136°
2026-04-25 16:27 40.19335 -3.74287 5852 ft 264 kts 107°
2026-04-25 16:27 40.19239 -3.71905 6617 ft 268 kts 77°
2026-04-25 16:27 40.20118 -3.69755 7343 ft 275 kts 47°
2026-04-25 16:27 40.21754 -3.68435 8008 ft 282 kts 21°
2026-04-25 16:28 40.23676 -3.67837 8680 ft 287 kts
2026-04-25 16:28 40.25684 -3.67615 9308 ft 292 kts
2026-04-25 16:28 40.27722 -3.67564 9951 ft 295 kts
2026-04-25 16:28 40.29808 -3.67547 10325 ft 307 kts
2026-04-25 16:29 40.31971 -3.67498 10562 ft 322 kts
2026-04-25 16:29 40.34275 -3.67392 10940 ft 331 kts
2026-04-25 16:29 40.36594 -3.67241 11448 ft 335 kts
2026-04-25 16:29 40.38929 -3.67058 11990 ft 338 kts
2026-04-25 16:30 40.41257 -3.66860 12525 ft 341 kts
2026-04-25 16:30 40.43664 -3.66649 13072 ft 344 kts
2026-04-25 16:30 40.46030 -3.66440 13618 ft 346 kts
2026-04-25 16:30 40.48446 -3.66228 14154 ft 349 kts
2026-04-25 16:31 40.50873 -3.66016 14669 ft 350 kts
2026-04-25 16:31 40.53316 -3.65806 15171 ft 353 kts
2026-04-25 16:31 40.55772 -3.65595 15628 ft 355 kts
2026-04-25 16:31 40.58241 -3.65385 16139 ft 357 kts
2026-04-25 16:32 40.60728 -3.65174 16625 ft 359 kts
2026-04-25 16:32 40.63224 -3.64962 17106 ft 361 kts
2026-04-25 16:32 40.65742 -3.64746 17589 ft 363 kts
2026-04-25 16:32 40.68268 -3.64530 18054 ft 365 kts
2026-04-25 16:33 40.70810 -3.64310 18479 ft 367 kts
2026-04-25 16:33 40.73369 -3.64090 18844 ft 370 kts
2026-04-25 16:33 40.75947 -3.63868 19206 ft 372 kts
2026-04-25 16:33 40.78541 -3.63644 19561 ft 375 kts
2026-04-25 16:34 40.81153 -3.63418 19908 ft 377 kts
2026-04-25 16:34 40.83780 -3.63189 20269 ft 380 kts
2026-04-25 16:34 40.86423 -3.62960 20633 ft 382 kts
2026-04-25 16:34 40.89086 -3.62730 20982 ft 384 kts
2026-04-25 16:35 40.91756 -3.62500 21319 ft 386 kts
2026-04-25 16:35 40.94447 -3.62268 21649 ft 388 kts
2026-04-25 16:35 40.97149 -3.62034 21982 ft 390 kts
2026-04-25 16:35 40.99865 -3.61798 22306 ft 392 kts
2026-04-25 16:36 41.02593 -3.61561 22620 ft 394 kts
2026-04-25 16:36 41.03485 -3.61484 22721 ft 395 kts
2026-04-25 16:36 41.08098 -3.61082 23264 ft 398 kts
2026-04-25 16:36 41.10873 -3.60841 23505 ft 402 kts
2026-04-25 16:37 41.13656 -3.60475 23797 ft 403 kts 10°
2026-04-25 16:37 41.16383 -3.59595 24028 ft 404 kts 18°
2026-04-25 16:37 41.19052 -3.58378 24273 ft 406 kts 20°
2026-04-25 16:37 41.21647 -3.57053 24579 ft 405 kts 22°
2026-04-25 16:38 41.24255 -3.55639 24882 ft 405 kts 22°
2026-04-25 16:38 41.26852 -3.54196 25204 ft 404 kts 23°
2026-04-25 16:38 41.29445 -3.52746 25465 ft 404 kts 23°
2026-04-25 16:38 41.32037 -3.51301 25779 ft 404 kts 22°
2026-04-25 16:39 41.34637 -3.49860 26023 ft 405 kts 22°
2026-04-25 16:39 41.37237 -3.48427 26350 ft 403 kts 22°
2026-04-25 16:39 41.39831 -3.47001 26608 ft 404 kts 22°
2026-04-25 16:39 41.42425 -3.45578 26944 ft 403 kts 22°
2026-04-25 16:40 41.45018 -3.44155 27196 ft 403 kts 22°
2026-04-25 16:40 41.47604 -3.42735 27509 ft 402 kts 22°
2026-04-25 16:40 41.50195 -3.41311 27725 ft 404 kts 22°
2026-04-25 16:40 41.52797 -3.39879 27936 ft 405 kts 22°
2026-04-25 16:41 41.55402 -3.38443 28178 ft 406 kts 22°
2026-04-25 16:41 41.63198 -3.34138 29032 ft 404 kts 22°
2026-04-25 16:42 41.65792 -3.32702 29329 ft 403 kts 22°
2026-04-25 16:42 41.68378 -3.31270 29566 ft 403 kts 22°
2026-04-25 16:42 41.70962 -3.29838 29831 ft 402 kts 22°
2026-04-25 16:42 41.73552 -3.28402 30062 ft 403 kts 22°
2026-04-25 16:43 41.78785 -3.25495 30098 ft 412 kts 22°
2026-04-25 16:43 41.84091 -3.22543 30098 ft 413 kts 22°
2026-04-25 16:44 41.89351 -3.19611 30103 ft 412 kts 22°
2026-04-25 16:44 41.94653 -3.16650 30108 ft 412 kts 22°
2026-04-25 16:45 41.99947 -3.13687 30112 ft 413 kts 22°
2026-04-25 16:45 42.05255 -3.10713 30115 ft 413 kts 22°
2026-04-25 16:46 42.10554 -3.07739 30119 ft 413 kts 22°
2026-04-25 16:46 42.14097 -3.05747 30115 ft 413 kts 22°
2026-04-25 16:47 42.21146 -3.01775 30114 ft 411 kts 22°
2026-04-25 16:47 42.26429 -2.98793 30113 ft 411 kts 22°
2026-04-25 16:48 42.30817 -2.96312 30117 ft 411 kts 22°
2026-04-25 16:48 42.36093 -2.93323 30116 ft 412 kts 22°
2026-04-25 16:49 42.41381 -2.90323 30115 ft 413 kts 22°
2026-04-25 16:49 42.46596 -2.87062 30114 ft 413 kts 27°
2026-04-25 16:50 42.51652 -2.83349 30116 ft 413 kts 28°
2026-04-25 16:50 42.56673 -2.79553 30121 ft 413 kts 28°
2026-04-25 16:51 42.61697 -2.75735 30136 ft 414 kts 28°
2026-04-25 16:51 42.65882 -2.72556 30138 ft 415 kts 28°
2026-04-25 16:52 42.71767 -2.68087 30149 ft 415 kts 28°
2026-04-25 16:52 42.76802 -2.64258 30154 ft 415 kts 28°
2026-04-25 16:53 42.84332 -2.58518 30155 ft 415 kts 28°
2026-04-25 16:54 42.89369 -2.54669 30145 ft 415 kts 28°
2026-04-25 16:54 42.94407 -2.50811 30147 ft 415 kts 28°
2026-04-25 16:55 42.99448 -2.46943 30155 ft 415 kts 28°
2026-04-25 16:55 43.04474 -2.43079 30157 ft 415 kts 28°
2026-04-25 16:56 43.09504 -2.39207 30156 ft 415 kts 28°
2026-04-25 16:56 43.14528 -2.35332 30161 ft 415 kts 28°
2026-04-25 16:57 43.19549 -2.31450 30172 ft 415 kts 28°
2026-04-25 16:57 43.24576 -2.27555 30173 ft 415 kts 28°
2026-04-25 16:58 43.29591 -2.23664 30177 ft 414 kts 28°
2026-04-25 16:58 43.34604 -2.19767 30182 ft 414 kts 28°
2026-04-25 16:59 43.39622 -2.15860 30182 ft 414 kts 28°
2026-04-25 16:59 43.44638 -2.11945 30186 ft 415 kts 28°
2026-04-25 17:00 43.49664 -2.08016 30181 ft 416 kts 28°
2026-04-25 17:00 43.54702 -2.04068 30186 ft 416 kts 28°
2026-04-25 17:01 43.59732 -2.00120 30187 ft 416 kts 28°
2026-04-25 17:01 43.64772 -1.96175 30183 ft 417 kts 27°
2026-04-25 17:02 43.69925 -1.92497 30179 ft 417 kts 24°
2026-04-25 17:02 43.75091 -1.88981 30175 ft 417 kts 24°
2026-04-25 17:03 43.80290 -1.85426 30176 ft 417 kts 25°
2026-04-25 17:03 43.85485 -1.81833 30174 ft 418 kts 24°
2026-04-25 17:04 43.90682 -1.78218 30171 ft 418 kts 25°
2026-04-25 17:04 43.95880 -1.74593 30171 ft 418 kts 25°
2026-04-25 17:05 44.01078 -1.70962 30169 ft 418 kts 25°
2026-04-25 17:05 44.08884 -1.65496 30174 ft 419 kts 24°
2026-04-25 17:06 44.14090 -1.61842 30164 ft 419 kts 24°
2026-04-25 17:06 44.19267 -1.58202 30170 ft 419 kts 24°
2026-04-25 17:07 44.24473 -1.54534 30173 ft 420 kts 24°
2026-04-25 17:07 44.29694 -1.50848 30171 ft 420 kts 24°
2026-04-25 17:08 44.34909 -1.47158 30167 ft 420 kts 24°
2026-04-25 17:08 44.40121 -1.43463 30158 ft 420 kts 24°
2026-04-25 17:09 44.45333 -1.39761 30164 ft 422 kts 24°
2026-04-25 17:09 44.50573 -1.36032 30153 ft 422 kts 24°
2026-04-25 17:10 44.55805 -1.32301 30159 ft 422 kts 24°
2026-04-25 17:10 44.61045 -1.28556 30174 ft 422 kts 24°
2026-04-25 17:11 44.66282 -1.24805 30157 ft 423 kts 24°
2026-04-25 17:11 44.71523 -1.21045 30148 ft 423 kts 24°
2026-04-25 17:12 44.76765 -1.17276 30163 ft 423 kts 24°
2026-04-25 17:12 44.82001 -1.13503 30158 ft 423 kts 24°
2026-04-25 17:13 44.85478 -1.10995 30163 ft 424 kts 25°
2026-04-25 17:13 44.92504 -1.05913 30150 ft 424 kts 25°
2026-04-25 17:14 44.97724 -1.02128 30157 ft 424 kts 25°
2026-04-25 17:14 45.02979 -0.98310 30140 ft 425 kts 24°
2026-04-25 17:15 45.08241 -0.94480 30155 ft 426 kts 24°
2026-04-25 17:15 45.13509 -0.90637 30153 ft 426 kts 24°
2026-04-25 17:16 45.18771 -0.86789 30152 ft 426 kts 25°
2026-04-25 17:16 45.23947 -0.82764 30142 ft 423 kts 27°
2026-04-25 17:17 45.29055 -0.78593 30142 ft 423 kts 27°
2026-04-25 17:17 45.34157 -0.74412 30138 ft 426 kts 27°
2026-04-25 17:18 45.39318 -0.70203 30145 ft 429 kts 27°
2026-04-25 17:18 45.44490 -0.65989 30140 ft 428 kts 27°
2026-04-25 17:19 45.49660 -0.61770 30142 ft 428 kts 27°
2026-04-25 17:19 45.54824 -0.57547 30145 ft 428 kts 27°
2026-04-25 17:20 45.59989 -0.53314 30152 ft 427 kts 27°
2026-04-25 17:20 45.65127 -0.49092 30153 ft 426 kts 27°
2026-04-25 17:21 45.70262 -0.44864 30156 ft 426 kts 27°
2026-04-25 17:21 45.75395 -0.40629 30127 ft 426 kts 27°
2026-04-25 17:22 45.78824 -0.37796 30130 ft 425 kts 28°
2026-04-25 17:22 45.85627 -0.32161 30119 ft 424 kts 28°
2026-04-25 17:23 45.90733 -0.27921 30119 ft 424 kts 28°
2026-04-25 17:23 45.95833 -0.23678 30119 ft 424 kts 28°
2026-04-25 17:24 46.00923 -0.19433 30111 ft 421 kts 28°
2026-04-25 17:24 46.05982 -0.15204 30111 ft 420 kts 28°
2026-04-25 17:25 46.11035 -0.10973 30108 ft 420 kts 28°
2026-04-25 17:25 46.16044 -0.06768 30110 ft 420 kts 28°
2026-04-25 17:26 46.21073 -0.02538 30103 ft 416 kts 29°
2026-04-25 17:26 46.26077 0.01681 30120 ft 418 kts 29°
2026-04-25 17:27 46.31117 0.05936 30098 ft 420 kts 29°
2026-04-25 17:27 46.34495 0.08794 30110 ft 420 kts 29°
2026-04-25 17:28 46.41203 0.14483 30097 ft 418 kts 30°
2026-04-25 17:28 46.46213 0.18743 30104 ft 417 kts 30°
2026-04-25 17:29 46.51219 0.23009 30108 ft 417 kts 30°
2026-04-25 17:29 46.56229 0.27286 30100 ft 417 kts 30°
2026-04-25 17:30 46.61227 0.31563 30118 ft 416 kts 30°
2026-04-25 17:30 46.66209 0.35835 30098 ft 415 kts 30°
2026-04-25 17:31 46.71190 0.40116 30099 ft 415 kts 30°
2026-04-25 17:31 46.76168 0.44405 30111 ft 417 kts 30°
2026-04-25 17:32 46.81163 0.48716 30095 ft 417 kts 30°
2026-04-25 17:32 46.86157 0.53035 30105 ft 417 kts 30°
2026-04-25 17:33 46.91116 0.57335 30100 ft 417 kts 30°
2026-04-25 17:33 46.96108 0.61671 30106 ft 417 kts 30°
2026-04-25 17:34 47.01095 0.66013 30104 ft 417 kts 30°
2026-04-25 17:34 47.03686 0.67904 30104 ft 415 kts 19°
2026-04-25 17:34 47.06444 0.69068 30109 ft 412 kts
2026-04-25 17:35 47.12132 0.70057 30126 ft 411 kts
2026-04-25 17:35 47.17842 0.70636 30131 ft 411 kts
2026-04-25 17:36 47.23557 0.71161 30125 ft 412 kts
2026-04-25 17:36 47.29277 0.71727 30128 ft 412 kts
2026-04-25 17:37 47.34021 0.72219 30127 ft 412 kts
2026-04-25 17:37 47.39732 0.72822 30131 ft 411 kts
2026-04-25 17:38 47.44478 0.73323 30129 ft 411 kts
2026-04-25 17:38 47.51075 0.74739 30131 ft 412 kts 14°
2026-04-25 17:39 47.56574 0.77222 30129 ft 413 kts 17°
2026-04-25 17:39 47.62029 0.79922 30127 ft 412 kts 17°
2026-04-25 17:40 47.67440 0.82633 30124 ft 410 kts 17°
2026-04-25 17:40 47.72856 0.85328 30133 ft 412 kts 17°
2026-04-25 17:41 47.78301 0.88026 30115 ft 413 kts 17°
2026-04-25 17:41 47.83754 0.90733 30118 ft 412 kts 16°
2026-04-25 17:42 47.89175 0.93457 30116 ft 411 kts 17°
2026-04-25 17:42 47.94592 0.96198 30116 ft 411 kts 17°
2026-04-25 17:43 48.00010 0.98946 30121 ft 411 kts 17°
2026-04-25 17:43 48.05416 1.01692 30121 ft 410 kts 17°
2026-04-25 17:44 48.10812 1.04438 30119 ft 409 kts 17°
2026-04-25 17:44 48.16200 1.07185 30118 ft 409 kts 17°
2026-04-25 17:45 48.20672 1.09470 30121 ft 409 kts 17°
2026-04-25 17:45 48.26944 1.12668 30124 ft 410 kts 17°
2026-04-25 17:46 48.32352 1.15426 30125 ft 411 kts 17°
2026-04-25 17:46 48.37761 1.18190 30124 ft 411 kts 17°
2026-04-25 17:47 48.43166 1.20960 30135 ft 411 kts 17°
2026-04-25 17:47 48.48588 1.23745 30130 ft 412 kts 17°
2026-04-25 17:48 48.56741 1.27931 30127 ft 413 kts 16°
2026-04-25 17:49 48.62191 1.30680 30129 ft 412 kts 16°
2026-04-25 17:49 48.67627 1.33414 30133 ft 413 kts 16°
2026-04-25 17:50 48.73086 1.36168 30138 ft 414 kts 16°
2026-04-25 17:50 48.78549 1.38935 30141 ft 414 kts 16°
2026-04-25 17:51 48.84020 1.41714 30147 ft 414 kts 16°
2026-04-25 17:51 48.89483 1.44495 30149 ft 414 kts 16°
2026-04-25 17:52 48.94920 1.47418 30147 ft 416 kts 23°
2026-04-25 17:52 48.99667 1.52425 30151 ft 419 kts 43°
2026-04-25 17:53 49.03683 1.58866 30151 ft 420 kts 47°
2026-04-25 17:53 49.07544 1.65573 30161 ft 421 kts 47°
2026-04-25 17:54 49.11392 1.72297 30149 ft 425 kts 47°
2026-04-25 17:54 49.15306 1.79081 30145 ft 426 kts 47°
2026-04-25 17:55 49.19228 1.85859 30146 ft 425 kts 47°
2026-04-25 17:55 49.23143 1.92632 30162 ft 425 kts 47°
2026-04-25 17:56 49.27054 1.99418 30174 ft 425 kts 47°
2026-04-25 17:56 49.30962 2.06219 30185 ft 426 kts 47°
2026-04-25 17:57 49.34956 2.12949 30181 ft 426 kts 39°
2026-04-25 17:57 49.39494 2.18750 30184 ft 425 kts 36°
2026-04-25 17:58 49.44138 2.24357 30187 ft 424 kts 35°
2026-04-25 17:58 49.48783 2.29910 30182 ft 422 kts 35°
2026-04-25 17:59 49.53410 2.35476 30179 ft 423 kts 35°
2026-04-25 17:59 49.58045 2.41082 30177 ft 424 kts 35°
2026-04-25 18:00 49.62649 2.46672 30173 ft 424 kts 35°
2026-04-25 18:00 49.67308 2.52343 30179 ft 424 kts 35°
2026-04-25 18:01 49.71943 2.57999 30207 ft 424 kts 36°
2026-04-25 18:01 49.76548 2.63632 30183 ft 420 kts 36°
2026-04-25 18:02 49.81115 2.69234 30185 ft 419 kts 36°
2026-04-25 18:02 49.85649 2.74807 30182 ft 419 kts 36°
2026-04-25 18:03 49.90238 2.80461 30183 ft 419 kts 36°
2026-04-25 18:03 49.94765 2.86053 30191 ft 419 kts 36°
2026-04-25 18:04 49.99328 2.91667 30181 ft 418 kts 32°
2026-04-25 18:04 50.04155 2.96652 30187 ft 416 kts 30°
2026-04-25 18:05 50.09039 3.01502 30186 ft 416 kts 29°
2026-04-25 18:05 50.13926 3.06320 30187 ft 416 kts 29°
2026-04-25 18:06 50.18819 3.11162 30187 ft 416 kts 29°
2026-04-25 18:06 50.23801 3.15747 30190 ft 414 kts 23°
2026-04-25 18:07 50.28978 3.19670 30189 ft 414 kts 21°
2026-04-25 18:07 50.34192 3.23479 30188 ft 413 kts 21°
2026-04-25 18:08 50.39387 3.27260 30174 ft 411 kts 21°
2026-04-25 18:08 50.44573 3.31056 30194 ft 411 kts 21°
2026-04-25 18:09 50.49751 3.34864 30193 ft 411 kts 21°
2026-04-25 18:09 50.54959 3.38588 30177 ft 411 kts 20°
2026-04-25 18:10 50.59342 3.41594 30177 ft 411 kts 19°
2026-04-25 18:10 50.65426 3.45752 30196 ft 410 kts 20°
2026-04-25 18:11 50.70614 3.49328 29842 ft 402 kts 20°
2026-04-25 18:11 50.73167 3.51096 29563 ft 401 kts 20°
2026-04-25 18:11 50.75725 3.52869 29280 ft 401 kts 20°
2026-04-25 18:11 50.78287 3.54646 29000 ft 402 kts 20°
2026-04-25 18:12 50.80841 3.56420 28723 ft 402 kts 20°
2026-04-25 18:12 50.83406 3.58204 28579 ft 401 kts 20°
2026-04-25 18:12 50.85960 3.59984 28726 ft 401 kts 20°
2026-04-25 18:12 50.88510 3.61762 29057 ft 401 kts 20°
2026-04-25 18:13 50.91066 3.63549 29197 ft 401 kts 20°
2026-04-25 18:13 50.96144 3.67164 29197 ft 400 kts 21°
2026-04-25 18:14 51.03750 3.72645 29198 ft 400 kts 21°
2026-04-25 18:14 51.08819 3.76305 29197 ft 400 kts 21°
2026-04-25 18:15 51.13892 3.79974 29202 ft 400 kts 21°
2026-04-25 18:15 51.18946 3.83636 29200 ft 398 kts 21°
2026-04-25 18:16 51.23988 3.87298 29198 ft 398 kts 21°
2026-04-25 18:17 51.31528 3.92807 29198 ft 396 kts 21°
2026-04-25 18:17 51.36499 3.96454 29203 ft 396 kts 21°
2026-04-25 18:18 51.41538 4.00158 29208 ft 396 kts 21°
2026-04-25 18:18 51.46499 4.03999 29207 ft 398 kts 28°
2026-04-25 18:19 51.50770 4.09696 29221 ft 403 kts 43°
2026-04-25 18:19 51.54585 4.16276 29208 ft 402 kts 46°
2026-04-25 18:20 51.58286 4.22998 29209 ft 402 kts 46°
2026-04-25 18:20 51.61988 4.29727 29207 ft 402 kts 46°
2026-04-25 18:21 51.65705 4.36442 29206 ft 402 kts 46°
2026-04-25 18:21 51.69427 4.43156 29206 ft 402 kts 46°
2026-04-25 18:22 51.73124 4.49838 29211 ft 402 kts 46°
2026-04-25 18:22 51.76829 4.56556 29208 ft 401 kts 46°
2026-04-25 18:23 51.80531 4.63289 29210 ft 400 kts 46°
2026-04-25 18:23 51.83629 4.68936 29207 ft 400 kts 46°
2026-04-25 18:24 51.87317 4.75677 29204 ft 401 kts 46°
2026-04-25 18:24 51.91006 4.82436 29209 ft 400 kts 46°
2026-04-25 18:25 51.94694 4.89214 29208 ft 400 kts 45°
2026-04-25 18:25 51.98323 4.95902 29199 ft 396 kts 45°
2026-04-25 18:26 52.01954 5.02609 29201 ft 396 kts 45°
2026-04-25 18:26 52.05585 5.09333 29202 ft 396 kts 46°
2026-04-25 18:27 52.09211 5.16066 29199 ft 396 kts 46°
2026-04-25 18:27 52.12830 5.22805 29199 ft 396 kts 46°
2026-04-25 18:28 52.16451 5.29565 29200 ft 396 kts 46°
2026-04-25 18:28 52.20067 5.36336 29198 ft 396 kts 45°
2026-04-25 18:29 52.25488 5.46520 29204 ft 396 kts 45°
2026-04-25 18:30 52.32702 5.60136 29207 ft 396 kts 45°
2026-04-25 18:30 52.36305 5.66965 29191 ft 396 kts 45°
2026-04-25 18:31 52.39900 5.73795 29195 ft 396 kts 45°
2026-04-25 18:31 52.43490 5.80637 29192 ft 396 kts 45°
2026-04-25 18:32 52.47075 5.87487 29192 ft 396 kts 45°
2026-04-25 18:32 52.50661 5.94357 29192 ft 396 kts 45°
2026-04-25 18:33 52.54238 6.01230 29196 ft 396 kts 45°
2026-04-25 18:33 52.57802 6.08097 29189 ft 395 kts 45°
2026-04-25 18:34 52.61364 6.14978 29200 ft 395 kts 45°
2026-04-25 18:34 52.64924 6.21874 29191 ft 395 kts 45°
2026-04-25 18:35 52.68476 6.28772 29191 ft 395 kts 45°
2026-04-25 18:35 52.72026 6.35688 29196 ft 395 kts 45°
2026-04-25 18:36 52.75570 6.42611 29191 ft 395 kts 45°
2026-04-25 18:36 52.79113 6.49550 29186 ft 395 kts 45°
2026-04-25 18:37 52.82649 6.56494 29200 ft 395 kts 45°
2026-04-25 18:37 52.86189 6.63466 29188 ft 395 kts 45°
2026-04-25 18:38 52.89717 6.70434 29183 ft 395 kts 45°
2026-04-25 18:38 52.93242 6.77416 29185 ft 395 kts 45°
2026-04-25 18:39 52.96767 6.84417 29184 ft 395 kts 45°
2026-04-25 18:39 53.00263 6.91380 29181 ft 395 kts 45°
2026-04-25 18:40 53.03777 6.98398 29181 ft 395 kts 46°
2026-04-25 18:40 53.07289 7.05436 29170 ft 395 kts 45°
2026-04-25 18:41 53.10791 7.12469 29193 ft 395 kts 45°
2026-04-25 18:41 53.13792 7.20208 29175 ft 405 kts 61°
2026-04-25 18:42 53.15460 7.27525 29174 ft 408 kts 65°
2026-04-25 18:42 53.17518 7.38039 29175 ft 409 kts 67°
2026-04-25 18:43 53.19232 7.47083 29173 ft 409 kts 67°
2026-04-25 18:43 53.20960 7.56115 29079 ft 407 kts 66°
2026-04-25 18:44 53.21826 7.60616 28416 ft 408 kts 66°
2026-04-25 18:44 53.22693 7.65117 27794 ft 407 kts 66°
2026-04-25 18:44 53.23557 7.69608 27192 ft 406 kts 66°
2026-04-25 18:44 53.24419 7.74098 26501 ft 406 kts 66°
2026-04-25 18:45 53.25280 7.78587 25839 ft 407 kts 66°
2026-04-25 18:45 53.26142 7.83093 25351 ft 408 kts 66°
2026-04-25 18:45 53.27008 7.87624 25184 ft 412 kts 66°
2026-04-25 18:45 53.27881 7.92203 25033 ft 413 kts 66°
2026-04-25 18:46 53.28749 7.96779 24794 ft 413 kts 66°
2026-04-25 18:46 53.29616 8.01361 24464 ft 414 kts 66°
2026-04-25 18:46 53.30487 8.05966 23726 ft 416 kts 66°
2026-04-25 18:46 53.31352 8.10548 23117 ft 410 kts 66°
2026-04-25 18:47 53.32199 8.15069 22489 ft 406 kts 66°
2026-04-25 18:47 53.33033 8.19552 21867 ft 402 kts 66°
2026-04-25 18:47 53.33855 8.23994 21254 ft 398 kts 66°
2026-04-25 18:47 53.34657 8.28417 20594 ft 396 kts 66°
2026-04-25 18:48 53.35445 8.32824 19974 ft 394 kts 66°
2026-04-25 18:48 53.36221 8.37201 19377 ft 390 kts 66°
2026-04-25 18:48 53.36985 8.41535 18809 ft 387 kts 66°
2026-04-25 18:48 53.37743 8.45865 18189 ft 384 kts 66°
2026-04-25 18:49 53.38484 8.50114 17525 ft 381 kts 66°
2026-04-25 18:49 53.39163 8.54404 16874 ft 383 kts 74°
2026-04-25 18:49 53.39244 8.58902 16240 ft 390 kts 90°
2026-04-25 18:49 53.38900 8.63398 15632 ft 389 kts 93°
2026-04-25 18:50 53.38497 8.67862 15043 ft 386 kts 94°
2026-04-25 18:50 53.38092 8.72291 14452 ft 383 kts 94°
2026-04-25 18:50 53.37691 8.76671 13864 ft 380 kts 94°
2026-04-25 18:50 53.37287 8.81037 13172 ft 379 kts 94°
2026-04-25 18:51 53.36885 8.85332 12510 ft 377 kts 94°
2026-04-25 18:51 53.36748 8.86790 12311 ft 376 kts 94°
2026-04-25 18:51 53.36077 8.93985 11387 ft 370 kts 94°
2026-04-25 18:51 53.35689 8.98168 11157 ft 369 kts 94°
2026-04-25 18:52 53.35296 9.02407 11129 ft 369 kts 94°
2026-04-25 18:52 53.34903 9.06654 11128 ft 369 kts 94°
2026-04-25 18:52 53.34508 9.10887 11116 ft 368 kts 94°
2026-04-25 18:52 53.34108 9.15183 11116 ft 369 kts 94°
2026-04-25 18:53 53.33714 9.19415 11123 ft 369 kts 94°
2026-04-25 18:53 53.33319 9.23649 11118 ft 369 kts 94°
2026-04-25 18:53 53.32924 9.27890 11133 ft 369 kts 94°
2026-04-25 18:53 53.32531 9.32078 11115 ft 370 kts 94°
2026-04-25 18:54 53.31727 9.40584 10378 ft 370 kts 94°
2026-04-25 18:54 53.31332 9.44801 9873 ft 364 kts 94°
2026-04-25 18:54 53.30947 9.48897 9611 ft 349 kts 94°
2026-04-25 18:55 53.30571 9.52826 9386 ft 335 kts 94°
2026-04-25 18:55 53.30200 9.56671 9015 ft 328 kts 94°
2026-04-25 18:55 53.29844 9.60361 8588 ft 323 kts 94°
2026-04-25 18:55 53.29556 9.64046 8143 ft 315 kts 84°
2026-04-25 18:56 53.29932 9.67519 7675 ft 297 kts 61°
2026-04-25 18:56 53.30770 9.70612 7265 ft 289 kts 54°
2026-04-25 18:56 53.31683 9.73595 7125 ft 288 kts 54°
2026-04-25 18:56 53.32607 9.76563 7094 ft 288 kts 54°
2026-04-25 18:57 53.33535 9.79533 7101 ft 288 kts 54°
2026-04-25 18:57 53.34461 9.82496 7103 ft 287 kts 54°
2026-04-25 18:57 53.35376 9.85463 7093 ft 285 kts 54°
2026-04-25 18:57 53.35681 9.86457 7095 ft 285 kts 54°
2026-04-25 18:58 53.37182 9.91359 7095 ft 285 kts 54°
2026-04-25 18:58 53.38992 9.97268 7085 ft 285 kts 54°
2026-04-25 18:58 53.39899 10.00226 7087 ft 285 kts 54°
2026-04-25 18:59 53.41707 10.06128 7084 ft 285 kts 54°
2026-04-25 18:59 53.43512 10.12046 7080 ft 285 kts 54°
2026-04-25 19:00 53.45313 10.17966 7095 ft 285 kts 54°
2026-04-25 19:00 53.46210 10.20921 7095 ft 285 kts 54°
2026-04-25 19:01 53.48000 10.26843 7095 ft 283 kts 54°
2026-04-25 19:01 53.48860 10.29725 6979 ft 269 kts 54°
2026-04-25 19:01 53.49669 10.32484 6820 ft 258 kts 54°
2026-04-25 19:01 53.50447 10.35160 6560 ft 252 kts 54°
2026-04-25 19:02 53.51972 10.40380 5914 ft 246 kts 54°
2026-04-25 19:02 53.52720 10.42946 5570 ft 244 kts 54°
2026-04-25 19:02 53.53461 10.45492 5222 ft 242 kts 54°
2026-04-25 19:03 53.54446 10.48861 4981 ft 239 kts 54°
2026-04-25 19:03 53.55663 10.53023 4963 ft 238 kts 54°
2026-04-25 19:03 53.56397 10.55512 4960 ft 236 kts 51°
2026-04-25 19:04 53.58801 10.58000 4958 ft 197 kts 349°
2026-04-25 19:04 53.60104 10.57421 4961 ft 194 kts 336°
2026-04-25 19:05 53.62595 10.55648 4951 ft 195 kts 334°
2026-04-25 19:05 53.65083 10.53831 4950 ft 195 kts 334°
2026-04-25 19:05 53.66213 10.52612 4906 ft 194 kts 314°
2026-04-25 19:06 53.67026 10.50757 4498 ft 199 kts 305°
2026-04-25 19:06 53.68186 10.47459 3960 ft 196 kts 298°
2026-04-25 19:06 53.68560 10.45228 3603 ft 200 kts 286°
2026-04-25 19:07 53.68954 10.40565 2982 ft 201 kts 284°
2026-04-25 19:07 53.69149 10.38224 2959 ft 201 kts 284°
2026-04-25 19:08 53.69537 10.33569 2963 ft 200 kts 284°
2026-04-25 19:08 53.69686 10.31238 2963 ft 203 kts 275°
2026-04-25 19:09 53.68799 10.24078 2993 ft 210 kts 264°
2026-04-25 19:09 53.68567 10.22489 2995 ft 211 kts 264°
2026-04-25 19:09 53.67748 10.16908 3000 ft 209 kts 264°
2026-04-25 19:10 53.67406 10.14514 2997 ft 210 kts 263°
2026-04-25 19:10 53.66865 10.12183 2999 ft 218 kts 249°
2026-04-25 19:10 53.65989 10.10049 2999 ft 224 kts 240°
2026-04-25 19:10 53.65025 10.08044 2987 ft 213 kts 240°
2026-04-25 19:11 53.64122 10.06147 2998 ft 205 kts 241°
2026-04-25 19:11 53.63253 10.04279 2989 ft 197 kts 241°
2026-04-25 19:11 53.62437 10.02515 2872 ft 185 kts 242°
2026-04-25 19:11 53.61669 10.00855 2601 ft 175 kts 242°
2026-04-25 19:12 53.60937 9.99304 2344 ft 163 kts 242°
2026-04-25 19:12 53.60258 9.97861 2116 ft 149 kts 243°
2026-04-25 19:12 53.59643 9.96551 1902 ft 138 kts 244°
2026-04-25 19:12 53.59061 9.95308 1733 ft 134 kts 243°
2026-04-25 19:13 53.58487 9.94080 1514 ft 133 kts 242°
2026-04-25 19:13 53.57908 9.92848 1324 ft 135 kts 242°
2026-04-25 19:13 53.57321 9.91601 1126 ft 136 kts 240°
2026-04-25 19:13 53.56736 9.90356 942 ft 134 kts 239°
2026-04-25 19:14 53.56159 9.89131 769 ft 134 kts 238°
2026-04-25 19:14 53.55779 9.88324 657 ft 132 kts 238°
2026-04-25 19:14 53.55027 9.86728 383 ft 129 kts 240°
2026-04-25 19:14 53.54478 9.85547 237 ft 129 kts 238°
2026-04-25 19:15 53.53911 9.84373 65 ft 130 kts 236°
2026-04-25 19:15 53.53385 9.83237 31 ft 109 kts 232°
2026-04-25 19:15 53.53011 9.82447 28 ft 58 kts 231°
2026-04-25 19:15 53.52935 9.82225 28 ft 9 kts 271°
2026-04-25 19:16 53.52919 9.82128 26 ft 3 kts 239°
2026-04-25 19:16 53.52918 9.82127 28 ft 0 kts 239°
2026-04-25 19:16 53.52918 9.82126 28 ft 1 kts 239°
2026-04-25 19:16 53.52913 9.82117 27 ft 0 kts 232°
2026-04-25 19:17 53.52912 9.82116 27 ft 1 kts 232°
2026-04-25 19:17 53.52883 9.82140 27 ft 12 kts 129°
2026-04-25 19:17 53.52938 9.82297 29 ft 30 kts 52°
2026-04-25 19:18 53.53065 9.82563 25 ft 28 kts 51°
2026-04-25 19:18 53.53180 9.82806 27 ft 26 kts 52°
2026-04-25 19:18 53.53286 9.83029 29 ft 22 kts 40°
2026-04-25 19:18 53.53402 9.83000 28 ft 16 kts 326°
2026-04-25 19:19 53.53485 9.82891 30 ft 14 kts 320°
2026-04-25 19:19 53.53556 9.82801 29 ft 11 kts 325°
2026-04-25 19:19 53.53573 9.82803 30 ft 1 kts 23°
2026-04-25 19:19 53.53589 9.82834 30 ft 10 kts 47°
2026-04-25 19:20 53.53609 9.82874 31 ft 0 kts 50°